STARLINK-5364, 55491

Orbit data source: Space-Track

STARLINK-5364, 55491 is a payload satellite owned by SpaceX/Seattle (US) in LEO that was launched on Thu, 02 Feb 2023 UTC via an FALCON 9 launch vehicle from the Air Force Eastern Test Range (AFETR). Payload-class satellites include a variety of spacecraft equipped with specific instruments for various scientific and technological missions. These include communications satellites like Starlink; space stations such as the ISS; scientific satellites like the Hubble; Earth observation satellites from companies like Planet Labs, Umbra, and HawkEye 360; GPS; miniature CubeSats for education and research; and military/defense satellites.

Loading next visibility...
Identifier
55491, 2023-015AU
Orbit
LEO
Country
Flag of USUS
Related business
Manufacturer
SpaceX/Seattle
Mission
Operational Commercial Communications
Bus & Motor
STARLINK, Unknown motor
Mass
305 kg wet, ~290 kg dry
Launch date (UTC)
2023-02-02 (3 years ago)
Launch vehicle
FALCON 9
Launch site
Air Force Eastern Test Range (AFETR)
Object type
Payload
Rocket body
Debris
Shape & HBR
Box + 1 Pan, 10.1 m
Radar Cross Section
13.562 m², Large (>1 m²)

Expand to show TLE details & history
Last TLE update: 5 hours ago

TLE from 5 hours ago
0 STARLINK-5364
1 55491U 23015AU  26132.83335647  .00009145  00000-0  34157-3 0  9990
2 55491  42.9995 319.1553 0001333 276.9297 135.6285 15.27568045  5797
Epoch: 2026-05-12T20:00Z
TLE epoch observation values (Epoch: 2026-05-12T20:00:01.999Z)
Latitude
32.91484°
Longitude
-167.79983°
Altitude
484.81 km
Speed
7.627 km/s
True Right ascension
00h 11m 14s
True Declination
32° 45' 07"
Sunlit
Object was in daylight at epoch
Visualization orbit readout
Latitude
Unknown
Longitude
Unknown
Altitude
Unknown
Speed
Unknown
Apparent Right ascension
Unknown
Apparent Declination
Unknown
Sunlit
N/A
Visualization observer readout
Local Sidereal Time
09:31:05
Azimuth
Unknown
Elevation
Unknown
Doppler factor
Unknown
Orbital elements
Apogee altitude
485.945 km
Perigee altitude
484.115 km
Semi-major axis
6,863.167 km
Eccentricity
0.00013
Inclination
42.9995°
RAAN
319.1553°
Arg. of periapsis
276.9297°
True anomaly
135.63918°
Mean anomaly
135.6285°
Eccentric anomaly
135.63384°
Mean motion
3.8173 °/min
Orbital period
94.31 mins
BSTAR
0.00034157
Loading maneuver chart data...
Computing Atmospheric mass density...
Loading historical data...
Loading historical data...
Loading historical data...
Loading historical data...
Loading historical data...
Loading historical data...
Loading historical data...

Documentation

Showing up to 5 results
|